GFSMA_500_rhum_114.txt.gz
RH
24 21 19 18 19 18 18 19 19 19 20 20 19 19 19 19 20 20 21 22 23 25 26 26 27 28 31 31 32 36 41 49 49 54 52 62 63 57 46 37 34 30 29
30 28 24 21 20 18 18 19 20 20 20 21 21 22 22 23 24 25 26 27 28 29 30 30 32 34 35 37 39 40 42 42 44 49 52 56 67 68 51 40 36 33 32
27 24 21 20 18 17 17 18 18 19 21 22 23 24 26 27 28 29 29 26 21 18 17 18 25 33 42 44 45 47 47 45 46 59 60 59 66 71 58 44 36 32 33
37 32 28 25 21 19 18 18 20 19 19 20 22 20 19 18 16 14 13 12 16 23 49 66 70 60 40 40 41 53 55 57 55 66 66 68 69 77 64 48 38 27 34
38 36 33 30 28 25 22 19 17 16 15 16 15 15 15 15 17 27 36 42 56 69 69 67 73 64 46 46 56 57 60 60 65 63 69 75 71 80 74 52 38 31 39
39 36 33 30 28 25 23 22 20 19 21 25 27 28 34 43 51 52 51 52 55 59 58 63 71 60 53 59 66 67 58 63 58 57 67 73 79 81 85 59 42 31 39
52 48 44 39 36 32 30 27 24 25 44 47 41 43 52 61 60 60 58 58 65 78 67 71 83 74 67 67 72 68 64 70 70 64 69 73 73 75 79 68 66 36 35
50 41 35 30 27 24 24 32 34 42 52 44 44 55 57 68 68 77 77 71 81 74 82 87 86 87 77 71 77 80 78 78 74 69 69 90 92 92 69 72 82 64 43
39 33 32 26 26 35 49 41 46 58 61 69 83 92 90 84 94 89 85 96 96 88 82 82 90 87 86 79 79 76 81 83 90 85 88 85 99 95 86 92 90 83 49
45 40 28 28 57 77 70 68 88 91 88 90 96 95 84 92 75 37 18 56 42 18 38 72 89 91 90 73 71 66 63 77 82 96 95 100 94 94 96 88 93 88 70
61 51 58 60 93 95 96 96 97 97 97 94 88 74 26 29 24 12 9 8 7 8 8 20 47 78 77 74 69 69 66 67 82 96 90 88 91 87 95 87 89 90 94
90 94 94 94 96 97 97 97 96 73 88 76 72 39 20 16 13 9 8 7 7 6 6 7 9 14 42 62 69 74 77 80 95 92 92 95 87 96 94 91 94 97 96
93 96 95 97 97 97 97 95 77 34 31 27 25 22 17 15 12 10 9 7 6 6 6 6 8 13 23 38 52 88 92 99 100 94 97 96 91 96 95 96 95 98 97
93 95 97 97 96 96 98 68 44 34 31 28 24 22 18 15 15 11 9 8 5 4 6 13 17 20 31 47 76 95 87 93 99 97 96 98 97 96 96 98 95 97 98
96 97 97 96 95 93 87 61 47 40 38 31 26 22 19 17 15 12 11 7 4 4 5 10 14 34 55 72 96 80 98 99 99 99 97 99 99 97 97 98 96 97 98
97 97 94 96 92 78 66 56 51 46 32 26 22 23 22 15 10 5 4 4 4 4 4 7 10 17 37 51 69 81 89 90 98 100 99 99 98 100 96 100 97 94 97
96 97 94 94 94 90 72 61 59 49 27 23 22 24 19 7 4 4 4 4 4 4 5 7 13 16 17 19 19 41 57 65 85 94 99 91 93 96 96 98 98 99 96
93 86 79 78 74 80 75 69 60 44 23 26 26 27 9 5 5 5 6 7 7 6 6 6 6 11 13 16 20 25 22 24 47 57 84 88 96 100 97 98 98 99 98
93 90 84 62 56 64 74 71 51 43 25 25 29 20 6 5 6 9 9 9 9 9 10 8 7 8 13 16 20 23 26 27 31 37 42 77 91 94 100 97 98 96 100
98 91 80 58 47 50 55 60 55 34 22 29 29 13 7 7 9 12 12 11 11 13 14 12 11 10 15 16 21 26 24 31 33 37 49 85 94 100 98 98 99 97 100
86 76 69 50 52 53 48 46 28 28 28 27 31 10 8 9 10 12 13 14 16 18 16 13 10 13 16 20 26 33 37 35 35 38 44 65 97 98 92 98 100 100 100
67 63 56 50 50 40 28 28 35 39 24 30 27 10 10 11 13 14 14 15 18 20 18 13 13 17 19 22 29 37 47 45 44 51 53 85 99 100 100 100 100 97 100
46 45 42 40 38 31 28 35 40 29 22 37 24 14 12 13 14 15 16 17 19 20 20 15 14 18 21 22 31 44 54 55 51 63 64 88 100 95 100 100 100 100 100
41 41 40 41 40 36 34 31 24 21 23 31 27 18 15 14 16 18 19 21 23 22 21 17 13 22 25 22 36 49 58 57 60 63 68 98 97 99 98 99 100 100 100
47 37 32 30 30 30 27 25 33 34 25 24 26 22 22 20 21 22 25 27 26 24 21 15 16 20 20 27 40 57 61 63 69 78 83 96 99 100 99 99 100 100 100
58 52 37 29 28 27 28 30 32 37 40 41 32 27 27 27 26 26 33 32 31 26 18 14 18 20 22 27 43 64 63 62 76 89 82 92 94 92 100 100 100 100 100

GFSMA_500_rhum_117.txt.gz
RH
30 26 24 18 18 16 16 17 18 18 18 18 18 18 18 19 19 20 21 22 22 23 22 22 24 24 21 21 30 34 36 37 41 43 37 41 49 48 52 54 55 45 36
32 26 25 22 20 19 19 19 18 18 18 19 19 19 20 20 21 22 23 22 23 22 18 15 14 15 31 52 53 39 39 39 38 48 42 49 54 53 56 59 59 52 40
38 32 26 23 21 20 20 20 20 20 20 20 20 18 19 20 20 20 21 21 15 11 10 14 23 40 55 59 70 54 36 36 48 55 56 62 54 59 66 64 59 59 47
39 32 29 28 26 25 23 22 20 16 14 15 14 15 16 17 16 16 14 11 10 17 28 42 53 62 60 58 62 52 47 60 57 54 66 60 65 70 79 74 70 69 56
38 30 28 27 24 22 20 19 18 19 18 17 17 16 15 15 15 14 15 23 37 46 47 48 50 54 55 61 68 57 54 62 65 61 62 66 68 74 88 88 86 77 61
44 38 34 33 31 30 29 27 24 22 20 19 18 19 24 32 39 43 45 52 54 55 54 51 57 51 50 70 82 73 72 60 58 68 67 65 64 71 92 98 98 86 67
47 46 40 39 36 32 29 27 25 24 24 23 28 47 50 42 44 52 56 57 64 68 64 63 61 61 60 66 76 75 68 64 64 65 74 71 71 72 86 99 93 85 84
46 42 40 38 36 37 38 33 30 30 32 44 52 51 45 49 54 75 79 79 59 66 73 74 48 26 39 55 64 58 60 60 58 57 57 62 76 75 85 92 93 96 99
48 50 51 51 50 44 37 32 32 43 45 49 51 66 79 84 88 88 62 39 27 14 14 11 13 12 16 17 41 62 57 56 51 53 59 60 64 71 91 94 93 99 92
81 67 64 55 45 39 29 30 54 68 74 86 96 92 89 61 35 31 32 27 14 8 8 7 6 6 5 5 7 45 75 83 85 81 80 81 83 92 100 96 96 95 95
94 79 63 47 41 38 38 56 87 94 96 98 97 81 80 71 49 28 15 13 12 9 8 7 6 5 4 4 5 6 7 11 26 56 93 82 100 100 100 97 96 98 96
94 75 59 55 64 69 83 91 98 98 97 94 78 35 25 26 22 20 12 11 11 9 7 8 7 5 4 4 6 7 10 20 49 95 98 98 97 94 98 97 96 98 94
91 81 74 78 87 90 90 97 97 96 94 77 48 26 25 26 25 18 11 9 9 8 7 6 4 4 3 3 4 6 8 21 29 44 87 98 86 97 97 91 92 95 95
89 83 85 84 96 93 94 97 97 93 94 93 84 38 28 26 21 15 16 10 9 6 4 4 3 3 3 3 3 4 4 6 19 52 57 87 97 99 98 99 96 98 98
96 94 88 96 96 96 97 97 95 91 74 43 38 31 31 27 24 21 13 10 9 7 4 4 3 3 3 4 4 4 6 8 12 12 31 58 72 81 98 93 100 94 94
97 95 95 97 96 96 96 96 95 91 88 63 52 39 33 35 28 18 13 11 7 5 4 5 5 5 5 5 6 6 6 10 11 13 15 16 31 50 72 93 85 90 80
97 97 96 96 97 97 97 96 92 93 87 66 57 43 32 35 28 21 12 6 5 6 6 6 6 7 6 6 8 8 7 7 10 12 17 20 20 24 30 66 88 87 84
96 97 98 96 96 96 92 90 92 90 82 71 54 42 30 30 32 27 14 7 6 8 6 6 9 9 8 9 7 5 6 7 11 13 20 20 23 25 30 38 81 98 100
97 96 97 96 94 97 95 92 84 81 78 70 52 47 24 30 32 28 14 8 7 10 9 10 13 15 13 10 8 6 6 8 13 17 23 27 29 31 31 37 88 100 98
93 94 85 83 88 88 87 69 54 57 68 68 62 34 25 33 32 32 20 10 8 10 12 12 14 18 18 17 11 8 7 9 17 24 33 40 40 39 40 40 63 90 90
95 92 84 79 74 73 70 53 48 50 53 50 40 28 43 35 28 30 25 12 9 12 14 14 16 18 22 22 17 11 10 15 21 32 41 47 51 50 52 67 64 94 100
92 83 73 67 62 70 70 58 53 51 46 32 30 36 42 34 26 32 27 13 10 12 14 16 17 21 26 23 15 10 16 21 21 27 44 55 52 45 58 74 100 100 100
79 74 70 66 65 63 55 49 43 40 36 30 31 37 38 26 26 34 35 21 14 14 17 18 22 26 30 21 16 13 16 19 20 29 47 59 56 59 66 81 87 100 92
66 62 52 48 45 42 41 39 36 35 36 35 34 35 27 22 26 34 36 25 19 18 22 23 27 34 32 20 14 13 18 19 24 39 55 59 64 69 79 87 76 96 92
71 62 54 47 42 39 36 34 33 30 29 30 28 24 27 40 39 35 37 30 25 24 26 29 37 39 27 16 14 13 14 17 26 47 62 63 74 76 76 94 92 96 100
54 59 59 53 46 44 43 41 36 32 30 28 26 26 31 37 49 52 39 32 35 36 38 45 41 35 19 15 12 10 13 21 37 60 69 60 62 67 82 87 84 90 100

GFSMA_500_rhum_120.txt.gz
RH
38 36 33 28 23 17 16 14 14 15 15 16 16 16 16 17 17 17 19 20 20 19 19 19 17 15 12 16 42 55 57 59 49 40 34 43 45 46 53 51 55 60 55
40 36 34 29 24 19 17 16 15 17 18 18 18 18 18 19 18 18 17 19 17 15 15 13 11 17 37 59 56 52 54 58 47 48 48 48 49 55 56 54 61 71 66
43 38 35 30 26 23 20 20 20 20 19 19 20 20 20 16 16 18 18 13 12 12 10 12 31 46 48 49 53 50 53 60 50 54 54 53 56 57 59 64 67 68 74
45 43 39 33 28 24 21 20 20 20 21 21 20 17 16 17 18 16 12 12 11 12 19 38 48 47 45 48 50 47 57 61 65 60 60 56 58 57 57 59 62 67 77
47 44 37 35 32 28 26 25 24 23 20 16 17 19 20 17 16 16 17 18 29 41 43 48 50 55 59 55 57 60 68 63 61 60 58 55 49 48 47 51 65 80 82
49 45 41 39 33 27 25 24 20 20 20 23 21 20 19 19 21 26 34 39 44 47 51 56 60 63 57 47 38 35 52 55 47 48 50 47 45 43 51 71 88 90 97
47 43 41 34 30 24 23 24 28 28 28 24 23 23 24 27 38 45 49 50 54 63 57 48 32 22 27 28 14 12 22 36 48 54 56 56 61 73 82 95 94 97 100
53 49 37 32 31 29 33 36 32 30 29 28 28 30 36 44 48 52 70 69 47 25 10 8 8 7 6 6 6 5 5 6 12 28 55 81 90 95 85 91 94 78 88
59 52 46 37 37 40 39 35 34 37 37 32 34 38 47 60 60 74 57 41 31 29 27 18 10 8 7 6 5 4 4 4 5 8 7 11 23 23 60 71 99 100 97
64 55 47 44 46 40 40 43 46 44 34 40 48 71 84 85 77 58 34 20 12 10 10 7 5 4 6 6 5 4 4 3 3 4 5 6 10 14 33 65 96 98 100
60 47 61 90 44 62 56 50 46 38 49 66 67 90 96 94 73 37 25 21 12 8 7 7 6 6 5 5 5 4 3 3 2 2 3 4 9 21 40 69 100 90 99
66 74 84 57 56 91 62 54 45 49 74 93 96 99 93 28 27 23 22 17 10 8 8 7 6 6 6 5 5 5 3 3 3 3 3 3 4 10 50 81 92 99 100
68 81 81 65 92 93 71 59 62 93 95 97 96 96 85 45 47 37 25 15 12 11 9 8 7 6 6 5 4 3 3 3 3 3 4 4 7 9 10 29 62 72 79
80 85 69 82 93 86 90 90 96 96 98 97 95 84 54 53 36 28 21 17 16 11 9 9 9 7 5 3 4 4 4 4 4 4 3 4 5 8 11 13 17 26 59
93 94 87 93 96 95 95 95 96 96 97 97 96 81 52 35 37 34 32 24 16 12 10 10 8 6 4 4 4 5 5 5 4 4 4 4 4 4 8 13 16 20 43
95 94 94 99 96 94 95 95 95 96 97 96 93 88 84 62 41 38 37 22 16 14 11 11 9 6 6 6 7 7 7 7 5 5 5 4 5 7 11 19 20 20 27
97 97 98 96 94 94 98 97 96 98 97 95 86 77 69 54 43 38 37 29 21 16 14 13 8 8 7 8 9 9 8 9 8 7 6 5 8 16 24 28 28 28 28
96 98 96 96 96 96 97 93 97 97 96 92 76 67 66 59 50 41 34 31 21 18 16 14 8 10 10 10 10 12 13 15 14 12 7 7 9 19 30 39 39 33 32
97 97 96 96 97 97 97 97 96 96 84 76 74 72 72 65 51 47 30 32 24 20 19 14 9 9 11 12 12 13 18 22 21 16 9 8 11 19 32 46 49 45 43
96 97 95 97 97 97 96 93 90 90 81 71 65 63 68 68 54 42 32 35 29 25 24 21 16 11 11 13 14 15 19 24 25 16 9 9 17 23 36 53 56 44 44
79 84 81 87 92 96 97 92 94 94 94 84 58 53 55 53 52 33 33 41 32 25 24 25 26 16 11 12 14 16 19 26 27 16 11 12 17 21 35 61 56 53 58
82 76 92 95 93 82 78 74 82 78 72 57 48 50 53 50 35 30 32 36 32 23 24 27 36 31 20 15 16 19 24 31 28 15 12 17 17 22 44 64 67 54 65
91 98 99 97 87 77 81 74 65 68 69 62 53 52 44 35 31 30 31 30 28 21 24 37 37 33 25 20 21 25 33 36 25 12 12 15 20 29 56 71 67 67 67
96 97 98 96 94 89 78 66 59 60 52 48 44 38 37 34 34 32 31 30 25 27 39 37 40 37 31 25 30 36 40 32 15 13 11 11 23 33 62 76 74 70 65
100 98 97 100 87 65 61 54 48 45 41 39 36 34 34 32 30 29 26 25 27 36 37 46 47 38 34 37 45 47 39 21 14 12 12 13 33 44 71 76 80 72 71
74 79 87 94 94 86 70 60 57 51 48 46 43 38 34 33 31 29 28 28 29 44 52 54 57 57 47 55 54 42 24 18 14 13 15 22 41 61 78 78 72 67 74

GFSMA_500_rhum_123.txt.gz
RH
51 46 39 34 29 27 22 18 15 14 13 13 13 14 15 16 16 17 18 18 17 14 13 12 12 10 12 32 39 38 40 38 40 49 47 46 47 44 40 38 42 50 55
53 48 41 36 31 28 20 19 16 15 14 16 17 18 18 18 19 20 18 15 14 12 11 11 10 17 29 37 40 42 43 39 39 48 57 53 51 49 47 46 54 63 69
54 47 42 38 32 30 22 19 17 17 16 18 19 19 19 21 21 17 14 14 14 11 10 13 20 32 37 38 41 43 45 43 42 43 37 33 36 37 43 54 58 66 76
54 48 44 38 35 31 25 21 19 19 19 19 20 21 22 19 15 16 16 17 14 15 22 29 36 38 42 46 49 44 40 36 36 35 33 34 37 45 50 55 60 68 84
56 50 47 42 35 29 24 21 21 20 20 20 22 22 17 17 21 20 17 18 21 32 37 35 38 47 54 55 52 48 35 28 25 24 24 27 37 46 56 68 75 79 78
56 53 50 45 35 27 25 22 21 22 24 24 21 18 21 23 22 20 22 26 39 40 40 44 43 25 12 9 11 14 14 17 18 13 9 12 27 33 48 69 39 23 67
57 56 53 45 36 36 28 25 23 23 24 21 21 26 26 24 26 26 28 33 38 44 52 28 12 13 20 12 9 8 7 6 6 5 4 4 4 4 4 5 9 17 59
62 58 53 42 42 31 29 25 24 24 25 26 30 28 28 30 28 30 42 46 50 58 46 33 27 20 9 6 5 4 4 4 4 4 4 3 3 3 2 3 4 10 33
66 60 52 45 36 29 25 26 25 26 39 34 30 33 32 31 39 47 74 66 52 34 17 17 12 6 5 5 4 4 4 3 4 4 3 3 3 3 2 2 3 6 42
69 63 58 46 54 34 31 30 33 41 56 38 35 35 35 44 55 81 76 58 23 18 16 12 6 4 4 4 4 4 3 3 4 4 4 3 3 3 2 2 3 5 14
81 70 60 66 60 36 39 37 42 65 46 43 41 38 52 54 87 90 88 29 21 16 10 7 6 5 5 5 4 5 5 5 4 4 4 4 4 3 3 3 3 5 8
91 87 86 87 56 46 45 41 90 69 71 68 41 46 70 94 89 90 58 31 21 14 9 9 7 7 6 5 6 6 6 5 5 5 5 4 4 3 3 3 3 4 9
90 93 95 94 62 49 47 73 92 50 91 89 65 66 94 93 91 59 32 26 23 16 10 13 9 9 8 6 6 6 6 6 5 6 6 5 5 4 4 4 4 4 5
96 96 96 91 57 66 68 89 64 52 96 96 97 94 96 84 82 30 49 38 25 18 13 19 12 10 10 9 7 8 6 6 6 6 7 7 6 6 5 5 5 5 9
96 93 95 65 62 51 74 90 68 74 97 94 96 96 90 98 87 50 44 41 32 23 28 14 13 11 11 12 10 8 7 6 7 7 8 8 9 8 8 6 6 6 10
92 96 94 71 62 55 84 95 95 96 96 94 96 96 98 94 67 66 48 54 37 30 20 16 14 12 12 13 13 11 8 7 8 9 10 10 12 12 12 9 7 8 14
96 96 96 68 62 63 95 97 93 91 97 96 96 97 97 94 82 58 53 41 39 37 28 23 17 14 14 14 13 12 11 9 9 10 12 14 15 17 13 8 13 14 19
95 96 92 94 95 95 94 95 97 93 96 95 97 97 98 96 86 72 55 48 43 41 32 26 19 16 16 16 14 13 10 11 12 12 12 15 17 20 16 9 13 17 18
98 96 98 96 93 97 98 97 96 94 96 97 97 96 96 88 70 62 59 52 47 46 32 29 25 22 19 19 19 14 11 11 12 14 14 17 21 26 17 11 13 18 21
96 96 96 97 97 96 97 98 98 96 97 97 97 96 94 95 87 70 65 59 54 50 38 31 30 25 24 25 26 27 20 16 14 14 17 23 30 28 19 12 14 19 19
95 96 97 97 96 96 97 97 96 98 97 97 88 89 95 94 94 79 66 60 59 56 48 31 35 32 26 25 25 32 35 33 23 18 22 32 34 30 17 12 12 20 25
62 62 67 69 75 70 98 96 93 94 96 96 95 93 92 93 90 80 68 62 60 53 40 30 32 33 26 22 25 34 37 34 31 25 31 38 36 24 13 12 15 28 40
88 80 79 70 86 98 99 94 79 70 86 92 87 87 77 72 63 54 53 53 53 38 30 30 31 31 26 25 38 36 41 45 32 29 38 43 32 18 13 12 10 24 57
99 97 97 98 97 98 95 84 81 72 94 88 80 70 70 75 67 58 54 48 38 36 35 32 32 27 26 32 34 42 50 41 39 44 47 43 24 16 13 12 15 31 64
87 77 90 94 98 98 99 98 98 100 98 96 89 79 68 59 54 47 43 38 36 32 32 28 27 26 28 30 40 50 58 61 54 52 54 34 20 16 16 16 22 51 73
96 98 100 99 99 98 100 97 98 93 88 81 81 67 58 51 44 45 41 40 36 35 36 34 31 33 35 38 51 56 62 64 57 59 43 26 20 18 15 24 46 68 88

GFSMA_500_rhum_126.txt.gz
RH
56 46 48 48 41 35 31 26 18 16 14 14 13 13 12 13 14 16 17 18 19 17 12 12 12 10 11 16 25 27 27 32 32 35 29 28 26 25 28 30 30 34 44
67 57 52 50 45 36 31 25 17 17 15 15 15 14 15 17 18 18 19 21 16 12 15 15 14 16 23 29 28 25 30 34 32 31 30 27 26 28 27 31 42 47 53
80 66 60 55 49 41 32 22 17 18 16 16 16 16 18 19 19 21 22 16 14 17 18 16 17 27 28 26 26 30 38 31 29 28 26 24 22 21 20 17 10 20 14
85 69 64 58 51 42 33 22 20 19 18 17 17 18 19 20 21 22 16 18 20 19 18 20 31 30 30 30 36 35 32 24 18 18 17 13 10 8 5 4 4 4 4
83 75 65 60 50 40 32 24 21 20 19 19 19 20 20 21 22 17 21 24 20 22 26 31 35 38 36 27 27 18 16 14 11 7 6 4 4 3 3 3 3 2 2
80 79 66 61 52 41 32 27 24 22 21 21 20 20 22 23 19 22 24 22 25 28 31 33 42 39 35 25 20 12 11 6 5 4 4 4 3 3 3 3 3 3 2
77 80 68 62 54 44 33 29 25 24 22 22 22 22 23 21 24 25 24 28 27 33 40 45 48 46 33 31 14 7 4 4 4 3 3 3 3 3 3 3 3 3 3
89 85 70 62 54 47 39 37 33 30 26 23 24 24 23 27 28 27 31 28 35 47 54 52 46 33 14 8 6 5 4 3 4 3 3 3 4 4 4 4 4 3 3
97 94 72 63 53 46 43 38 34 29 26 24 24 24 41 35 30 34 32 33 48 58 60 42 24 14 9 5 4 4 4 5 4 4 4 4 4 5 5 5 4 4 3
96 94 80 64 51 46 44 36 30 27 26 26 28 27 81 44 33 39 37 48 67 65 43 23 14 7 5 4 4 4 5 4 4 5 5 5 5 5 6 6 5 4 4
97 96 90 70 61 52 41 32 27 24 34 54 32 35 91 58 37 39 47 76 71 73 28 18 13 7 5 5 5 5 5 4 5 6 5 6 6 6 6 6 6 5 5
96 95 94 82 83 65 68 38 32 82 81 38 31 60 91 85 61 57 83 93 81 62 19 16 10 7 7 8 7 7 5 5 5 5 6 6 6 6 6 6 8 8 7
95 95 94 92 94 93 82 49 90 84 35 38 35 78 91 89 89 88 96 89 75 48 27 22 11 9 9 9 9 9 6 5 5 6 6 7 7 7 7 7 10 10 9
96 96 96 96 94 96 94 93 95 53 42 36 47 97 91 94 94 94 97 87 69 50 32 23 19 11 16 16 10 10 8 7 6 7 7 8 8 8 8 8 10 12 14
96 95 95 95 96 95 96 96 95 72 36 61 85 96 85 94 96 96 99 84 61 42 29 28 22 20 40 21 12 12 11 9 9 10 11 10 9 8 8 11 12 14 18
97 97 96 96 95 95 95 95 95 57 45 78 94 95 94 96 97 96 99 96 54 35 39 31 36 43 24 18 14 13 12 9 10 10 14 14 13 12 12 12 13 17 23
96 96 96 94 86 92 94 96 96 56 54 100 95 96 96 95 97 95 98 99 58 61 56 48 45 32 27 19 16 16 14 12 12 12 15 15 14 12 13 13 16 22 26
96 96 95 94 100 96 99 96 93 72 83 93 94 95 96 95 97 97 94 100 80 62 72 60 36 37 37 31 23 18 16 16 16 16 20 20 17 14 14 15 19 24 29
87 88 96 98 96 96 95 97 96 96 96 94 97 96 95 97 96 97 89 94 91 77 54 50 42 43 42 35 29 21 19 18 18 20 22 28 31 32 22 20 22 28 30
97 97 97 97 97 97 97 97 96 96 94 96 96 96 96 96 96 96 97 97 96 82 76 65 61 55 50 49 35 26 25 23 22 20 21 26 34 36 38 27 28 33 33
97 97 96 97 96 96 97 97 96 96 96 95 98 98 96 96 94 94 97 97 95 89 81 79 72 64 64 58 48 31 33 31 25 24 24 31 38 42 37 29 34 36 31
95 96 92 91 96 98 92 97 98 98 98 97 97 97 97 98 96 97 89 100 96 94 92 92 72 68 71 63 54 38 31 30 29 25 28 34 41 45 37 43 43 41 23
71 81 90 94 87 95 89 97 97 99 98 97 99 96 98 98 96 95 92 92 91 92 97 79 78 73 61 55 50 32 30 30 28 26 32 36 43 51 47 47 45 39 20
86 71 83 79 89 99 98 99 95 98 97 97 97 98 95 98 96 99 98 98 100 100 93 82 66 55 54 45 35 32 30 29 26 28 34 43 49 56 54 53 50 29 18
89 98 96 89 97 78 90 97 98 97 97 97 99 96 97 97 100 89 87 88 89 82 74 67 62 59 54 37 37 32 29 28 30 37 41 49 50 60 59 57 35 22 17
65 78 80 79 82 99 98 98 98 98 98 98 99 100 99 98 98 95 95 90 81 71 68 79 67 58 60 42 34 36 34 33 38 47 51 52 56 58 65 49 30 23 19

GFSMA_500_rhum_129.txt.gz
RH
53 57 59 44 41 45 44 39 32 28 20 17 15 14 13 12 12 13 15 17 18 22 21 14 18 19 17 20 22 22 21 23 29 25 21 22 17 14 12 8 5 3 3
49 60 62 58 46 47 48 41 34 29 23 19 16 16 14 14 15 16 18 19 21 23 15 19 23 18 19 23 26 28 28 30 27 23 22 18 14 8 5 4 3 3 3
49 53 62 68 58 52 51 46 35 28 21 16 17 16 16 16 17 19 20 20 23 17 20 23 19 21 28 28 31 31 30 26 22 16 11 13 12 6 3 3 3 3 3
65 55 70 72 71 61 56 50 40 33 21 17 17 16 17 17 18 20 20 24 19 20 24 20 25 28 31 32 33 33 28 29 17 14 13 6 4 3 3 3 3 3 3
72 64 61 74 78 68 62 53 42 35 24 19 17 18 18 18 19 20 22 23 19 27 22 26 29 28 39 42 37 31 29 17 8 10 7 4 4 3 3 3 3 4 4
73 79 64 66 76 73 65 57 44 35 27 25 20 18 18 20 20 22 24 20 26 25 28 27 27 40 46 43 30 25 14 6 5 4 5 4 3 3 4 4 4 4 5
98 91 80 65 75 84 69 60 49 37 30 27 22 19 19 21 21 24 22 24 30 28 30 28 40 47 46 36 29 11 5 4 4 5 4 4 4 4 4 5 5 6 7
33 59 91 87 90 91 71 61 54 43 34 27 23 21 21 21 23 24 24 30 30 32 31 29 42 50 40 31 12 6 4 4 4 5 4 4 4 5 5 5 5 6 7
14 57 84 95 87 90 77 64 56 46 33 27 25 24 22 23 25 26 50 40 31 35 35 33 56 50 36 20 14 5 4 4 5 5 5 4 5 5 5 5 5 6 6
56 75 82 97 96 95 78 65 56 47 40 33 25 21 22 24 25 32 64 53 34 41 40 64 60 50 26 13 5 4 4 5 5 5 5 5 5 5 5 5 6 7 7
15 31 96 96 96 96 78 64 57 46 42 33 26 24 24 26 40 52 59 73 38 42 48 72 61 42 20 11 6 5 5 6 5 5 5 5 6 5 5 6 7 7 7
7 33 61 95 97 96 93 84 54 46 46 37 25 23 24 42 93 65 58 93 67 61 73 75 70 47 18 13 7 7 8 7 7 5 5 6 5 5 6 7 7 8 8
3 7 52 94 96 95 93 86 84 71 46 42 23 27 29 95 68 38 60 94 84 77 82 65 67 50 20 13 8 8 9 10 10 9 6 6 5 5 6 8 9 11 14
4 15 53 93 97 96 92 92 94 87 86 44 49 50 88 83 75 53 81 95 92 89 84 78 72 34 27 23 10 10 13 16 12 11 8 6 6 6 6 8 11 15 16
20 86 98 96 97 96 92 92 95 96 82 92 95 93 95 79 87 92 98 95 94 95 93 91 70 52 37 26 21 16 20 35 22 12 12 9 8 7 7 10 13 16 17
90 98 98 97 97 95 94 96 94 96 93 95 93 86 96 96 71 85 96 96 94 94 99 88 77 64 41 29 25 20 21 39 25 16 14 11 10 11 12 11 14 20 28
96 98 97 98 97 92 98 97 96 96 96 96 96 93 99 94 98 97 97 96 96 96 96 89 91 74 40 34 31 30 35 39 23 19 18 16 14 14 14 13 15 18 26
97 96 95 95 94 99 96 93 96 96 95 96 95 94 98 94 96 100 95 97 96 98 96 94 94 97 40 49 44 42 42 38 37 32 26 20 18 16 14 17 17 20 27
95 96 96 96 96 97 96 96 96 98 97 97 94 97 96 94 95 93 96 96 98 97 98 98 90 100 61 63 56 47 41 37 41 39 34 25 22 17 20 22 22 24 24
96 96 96 95 96 96 92 97 96 96 97 97 96 96 96 96 94 96 96 97 97 96 92 92 90 93 84 71 58 58 51 55 52 49 52 37 28 24 23 25 25 25 29
95 96 96 97 94 98 93 94 97 96 95 96 95 97 92 96 96 96 98 96 95 96 96 92 82 88 99 87 79 73 72 72 69 68 63 56 45 27 28 29 28 27 33
97 99 97 96 96 98 94 95 95 97 96 98 99 97 98 98 98 99 99 100 92 97 100 93 97 97 98 98 97 97 92 94 83 76 67 58 44 31 30 29 28 30 40
97 97 97 95 95 92 90 96 98 97 82 84 92 95 92 98 97 100 95 98 95 98 97 93 100 98 97 97 98 97 98 97 89 86 84 63 35 32 30 28 31 38 42
85 83 83 94 94 79 86 78 95 86 72 97 96 98 89 95 98 98 98 98 98 98 97 97 95 98 98 97 96 95 97 98 97 77 83 43 55 52 29 33 38 41 41
90 71 82 88 83 72 94 100 94 97 67 96 98 98 98 98 98 95 97 98 97 99 98 98 97 94 96 97 97 99 99 96 77 83 85 69 57 37 34 42 46 41 42
100 100 100 100 100 98 88 90 94 100 98 98 95 98 98 99 97 96 97 99 100 99 97 99 94 91 97 95 95 96 95 98 99 97 97 96 68 49 43 48 54 51 52

GFSMA_500_rhum_132.txt.gz
RH
56 52 44 47 44 40 41 42 44 39 35 34 26 19 15 15 13 13 13 14 17 20 22 24 16 24 20 19 22 26 28 28 26 22 18 12 10 13 13 8 4 4 3
25 35 46 43 49 49 42 43 46 45 39 35 30 21 16 15 15 14 14 16 20 21 25 20 20 25 21 26 29 30 30 29 27 22 18 20 16 11 5 7 4 4 4
54 40 49 46 44 52 52 44 47 50 44 36 29 22 17 16 16 16 16 18 20 22 27 18 26 23 26 30 32 35 34 30 30 19 16 16 6 6 7 4 4 4 4
48 57 46 48 52 48 54 50 49 52 50 39 32 24 18 18 17 17 17 19 20 24 24 22 27 26 29 29 37 37 35 34 26 11 9 4 5 5 5 4 4 4 4
58 51 62 61 53 51 60 57 54 55 55 48 38 25 20 20 18 18 19 20 21 26 23 28 27 30 27 38 41 39 33 30 16 7 4 5 4 4 4 4 4 5 4
57 57 54 70 66 75 68 69 63 63 60 55 44 31 23 19 18 18 20 21 23 25 24 32 31 32 31 39 44 38 32 28 6 4 4 5 5 4 5 5 5 5 5
78 58 53 51 78 78 81 89 74 63 64 58 46 33 25 20 19 20 21 22 25 24 26 37 32 32 31 41 41 35 30 10 6 4 4 5 5 5 6 5 5 5 6
58 76 59 70 78 84 81 72 84 79 65 60 50 35 28 22 19 20 23 25 25 26 37 44 34 37 40 51 47 35 24 10 6 4 5 5 5 5 6 5 4 5 5
45 53 88 86 90 95 83 91 79 90 75 64 56 43 30 24 22 22 23 24 26 28 47 54 35 41 44 56 52 36 22 11 5 4 5 5 5 6 6 5 5 5 6
30 54 79 70 73 64 67 87 85 85 80 66 58 50 34 25 24 22 24 25 26 28 46 63 43 52 54 62 57 37 18 7 4 4 6 5 6 6 6 6 5 5 5
13 16 55 24 22 58 71 81 97 92 88 71 61 50 38 28 22 23 26 31 28 37 52 69 78 53 78 70 62 38 17 8 6 5 6 6 5 6 6 6 5 5 5
12 48 36 13 10 65 78 92 97 95 92 84 65 52 39 27 21 32 37 28 32 57 78 65 84 87 67 80 69 44 21 12 7 7 8 9 9 7 7 6 7 6 5
14 62 42 13 10 18 81 95 93 97 94 89 81 57 38 30 56 51 56 25 41 81 63 48 82 98 89 89 74 65 30 16 8 8 9 11 11 12 10 7 7 7 8
13 27 13 11 7 12 23 76 58 95 97 96 94 78 69 83 80 49 26 28 63 93 54 64 93 99 85 88 74 72 45 24 14 10 10 17 26 26 14 12 10 10 12
24 10 10 6 5 5 14 72 70 86 97 96 96 94 94 94 56 46 41 61 92 85 86 84 93 95 91 92 72 68 52 34 27 21 18 15 25 31 25 16 15 13 13
24 13 6 4 4 5 17 63 85 86 98 97 96 95 97 80 90 65 80 95 92 89 84 88 91 99 99 94 86 78 66 47 38 27 23 22 26 35 29 20 22 18 17
16 7 4 5 15 27 56 98 77 96 99 97 96 95 96 97 92 99 96 94 99 96 92 91 90 97 98 97 97 90 89 75 46 32 30 31 35 39 35 36 32 24 23
5 4 12 14 36 98 98 97 97 97 99 96 97 95 97 96 95 97 97 95 98 100 92 94 87 88 90 98 97 98 90 98 75 39 40 38 37 40 41 43 50 38 29
4 4 7 66 97 98 98 97 94 98 94 98 95 94 97 96 97 96 96 95 95 93 96 96 97 96 94 96 95 88 92 96 97 54 59 49 44 46 50 56 65 58 46
74 52 78 98 98 98 96 97 97 97 94 95 96 94 96 97 97 96 97 97 97 96 97 96 96 94 95 89 84 91 89 89 92 79 71 63 61 82 77 83 76 62 61
97 96 97 98 96 97 97 97 96 96 97 96 96 96 96 98 97 96 95 97 97 98 100 95 93 93 87 85 89 98 100 97 94 93 81 80 81 92 91 89 83 81 74
97 95 94 96 96 96 97 97 97 96 96 96 96 97 95 99 100 97 96 99 100 96 95 97 86 85 96 98 96 83 87 96 97 98 96 96 96 96 99 92 90 86 78
96 97 97 97 97 97 97 97 97 96 96 97 97 97 96 100 100 100 96 97 98 98 98 94 98 100 100 93 90 87 90 96 94 96 98 97 97 96 97 97 93 88 62
97 95 96 94 93 95 96 96 96 96 95 98 97 97 97 100 96 100 100 99 98 97 99 98 95 84 96 96 94 94 98 100 99 97 99 100 93 94 90 76 83 91 92
92 75 71 70 76 90 96 92 96 95 100 100 98 98 99 94 99 97 98 98 99 98 98 100 97 99 99 100 100 98 99 99 100 100 100 98 98 100 100 100 100 98 98
64 94 97 98 98 100 100 99 100 100 99 100 98 99 98 98 96 100 98 98 98 98 99 99 98 99 100 99 100 98 98 98 98 98 100 100 100 100 99 97 96 91 91

GFSMA_500_rhum_135.txt.gz
RH
65 50 54 56 49 49 42 35 28 28 39 40 34 33 30 22 15 14 14 13 13 15 20 21 25 21 24 27 27 28 34 30 29 27 20 17 19 14 5 8 5 5 5
59 52 35 51 54 47 43 41 37 32 36 42 39 35 32 25 18 15 16 15 15 17 20 22 26 21 27 29 29 29 35 32 30 28 21 12 12 5 4 4 4 5 5
58 57 53 36 52 52 46 44 43 41 33 40 43 41 34 28 19 17 16 16 16 18 20 23 27 22 29 32 31 33 35 33 32 28 19 6 4 6 5 5 5 5 4
57 48 66 61 39 40 53 53 51 54 43 36 40 44 37 31 23 18 17 17 18 18 20 22 27 23 32 35 32 34 35 33 28 23 16 7 4 4 5 5 6 5 4
55 47 60 47 45 44 49 56 62 63 61 43 40 43 44 37 28 19 19 17 18 19 21 22 26 25 34 37 35 35 40 36 30 27 8 5 4 5 5 6 6 5 4
56 55 51 48 46 47 54 49 59 64 66 60 43 47 48 45 34 25 20 19 19 21 22 23 26 27 37 40 36 42 45 37 30 18 11 5 4 5 5 6 7 5 5
31 65 62 53 46 49 53 66 61 74 87 74 57 51 54 50 39 27 24 22 21 22 22 23 27 26 40 44 38 43 48 48 34 21 10 4 4 5 5 6 7 6 5
21 36 62 57 49 54 47 56 72 69 69 80 76 62 58 53 42 32 26 24 22 23 25 24 28 32 46 50 38 45 51 58 43 27 20 5 4 5 5 5 7 7 5
23 25 39 50 50 63 84 55 69 68 78 74 85 73 63 58 45 36 32 28 24 23 24 25 26 33 42 58 53 48 61 64 50 31 12 5 4 5 5 6 6 7 6
27 19 21 94 68 66 61 88 78 75 70 84 80 79 72 64 53 39 32 27 24 23 24 25 26 29 39 57 72 72 70 74 60 41 16 5 5 5 6 5 6 6 7
30 22 15 73 45 54 54 88 77 98 66 75 99 87 82 73 62 51 34 28 23 23 24 25 40 32 47 61 73 86 91 72 68 53 23 8 6 6 7 10 10 9 9
41 27 20 11 13 30 22 95 58 87 56 78 75 92 96 87 81 62 44 34 28 22 22 36 50 31 70 92 65 83 84 76 75 62 43 17 9 8 9 10 11 15 15
53 37 28 14 10 16 68 73 70 17 29 98 93 87 75 96 95 88 60 30 27 22 41 60 42 31 79 92 81 85 84 81 75 70 67 39 17 9 9 10 16 27 29
60 44 28 18 12 15 97 38 60 15 39 75 97 98 56 96 94 94 95 92 55 45 85 72 37 44 84 95 87 98 90 82 86 85 75 57 28 23 13 15 15 20 29
67 55 40 21 14 63 26 23 42 17 14 42 40 87 55 76 97 96 95 95 79 86 95 51 42 38 86 92 78 91 90 82 90 86 82 68 38 33 28 24 23 29 36
58 66 57 38 19 16 15 32 17 19 5 8 38 86 90 80 98 97 96 93 93 97 81 87 75 91 96 96 94 85 93 92 90 92 85 83 70 54 37 29 30 33 39
41 59 61 53 41 24 13 26 21 7 5 12 27 79 98 98 100 97 94 96 96 96 98 98 97 97 96 97 95 96 93 94 90 90 94 87 80 84 67 38 36 35 39
25 46 55 55 48 35 21 12 11 4 18 31 50 92 98 96 95 97 96 97 96 98 95 96 97 94 94 99 96 98 99 99 97 94 91 82 77 84 93 72 49 48 50
14 30 44 52 47 31 12 8 5 11 42 74 96 97 98 97 96 97 97 97 99 97 96 96 96 96 93 96 96 97 100 99 99 98 75 85 90 89 89 92 66 60 66
6 16 27 40 29 10 7 5 16 42 92 97 97 97 95 96 97 97 97 96 97 97 97 96 95 97 95 97 97 96 98 98 99 93 92 99 97 99 99 100 93 83 84
3 6 10 13 7 4 5 44 86 97 97 97 97 97 95 96 97 96 96 97 97 97 97 97 95 98 97 98 98 98 96 96 87 91 82 83 88 97 97 100 96 97 100
4 7 5 7 5 12 32 93 97 99 98 97 97 98 97 97 97 97 97 97 98 99 96 97 97 96 98 97 98 97 93 91 87 82 87 91 89 96 97 92 94 99 100
98 98 98 98 97 94 97 97 97 97 96 97 97 97 97 97 96 96 98 97 97 98 98 98 97 97 96 98 98 98 97 95 88 82 86 78 82 86 100 100 100 100 100
98 97 97 97 97 96 97 97 96 96 97 97 96 97 97 98 98 98 98 98 98 98 97 98 98 97 98 98 98 96 98 100 94 91 82 75 86 92 100 100 100 100 96
92 90 93 94 91 92 91 93 96 96 97 97 97 97 98 98 98 97 97 98 97 97 97 98 98 98 98 97 98 97 98 99 98 96 89 90 100 100 100 100 99 98 95
18 19 17 16 12 17 30 29 16 18 32 64 90 94 96 97 97 98 98 98 97 98 97 97 97 98 98 98 99 99 98 98 99 100 98 99 100 99 100 98 99 98 98

GFSMA_500_rhum_138.txt.gz
RH
92 78 67 58 59 63 57 47 42 32 24 19 29 35 34 31 29 22 16 15 14 14 14 16 20 23 28 28 28 33 31 32 31 29 27 24 20 11 4 5 5 7 5
78 83 77 56 46 54 57 51 47 44 37 30 27 32 34 32 32 28 19 15 16 15 15 17 20 22 27 28 31 36 33 34 33 31 33 26 14 9 4 5 5 7 6
55 81 71 56 55 44 56 56 49 46 48 40 34 34 34 33 33 33 26 17 16 17 17 17 19 22 25 28 32 38 35 35 37 29 27 22 13 7 5 5 5 7 6
38 58 73 56 57 60 49 50 54 50 52 55 46 37 35 35 36 33 31 23 18 18 18 19 20 21 24 27 30 39 40 40 44 36 27 21 11 6 5 5 5 7 6
43 39 63 58 53 59 68 47 38 46 45 53 63 50 41 40 40 37 33 29 22 19 19 19 20 22 24 28 27 39 43 42 45 48 37 28 14 7 5 5 5 6 7
49 41 42 48 51 52 65 52 50 48 50 47 48 56 54 45 46 45 40 32 27 22 20 19 20 22 23 29 28 39 46 42 43 49 53 40 19 13 4 5 5 6 7
44 46 41 45 53 52 53 50 56 52 48 48 47 52 54 54 46 50 46 40 29 26 23 20 20 22 22 27 28 38 46 48 46 55 58 55 35 20 9 5 5 5 6
42 39 50 45 48 54 55 59 56 59 58 63 63 53 67 65 58 56 54 46 35 27 24 21 20 22 23 26 30 39 43 54 66 67 65 65 49 22 6 4 5 5 5
55 41 42 48 44 38 46 66 52 54 58 66 64 59 56 76 70 62 59 53 43 31 24 22 20 21 22 25 28 31 39 55 75 74 73 71 67 42 12 6 5 6 7
55 56 44 30 29 25 28 42 55 56 58 64 67 54 60 71 78 79 70 61 53 41 28 20 21 21 23 25 28 38 40 57 79 71 77 70 71 67 31 8 7 6 7
51 58 57 47 37 30 25 40 59 47 67 85 76 69 66 64 78 73 78 76 71 61 48 32 23 21 23 24 28 63 39 68 86 83 77 72 71 72 60 20 10 8 9
48 54 70 71 66 59 45 45 56 93 84 90 93 85 87 71 73 88 92 78 83 76 70 75 26 20 20 22 32 48 36 56 77 87 80 77 76 75 67 63 27 11 9
46 50 59 63 55 40 37 22 65 89 99 69 97 71 60 61 79 92 95 85 96 95 91 92 42 21 36 66 38 73 48 50 75 93 87 81 78 76 72 71 53 26 17
43 47 55 68 70 54 44 25 22 86 77 39 74 73 28 40 81 98 99 97 93 97 96 96 69 61 87 75 68 90 54 43 73 90 87 91 86 89 80 79 59 35 30
40 45 50 70 70 63 44 28 20 24 39 86 38 92 69 20 95 80 95 88 100 84 97 98 93 95 92 58 86 92 62 40 80 96 90 90 79 89 90 87 86 66 48
42 46 55 60 75 61 54 43 31 27 12 13 70 68 49 19 22 63 54 69 92 90 82 99 96 96 98 96 97 94 92 92 95 94 97 96 87 84 87 93 84 86 84
13 31 50 64 76 77 53 32 28 23 16 12 76 27 63 51 32 14 27 44 94 97 77 98 96 95 96 97 97 96 96 96 96 97 97 99 99 95 88 78 83 84 84
7 9 18 47 62 76 75 64 47 30 20 21 16 19 43 74 47 18 35 45 89 97 96 96 95 93 96 97 96 96 94 96 98 98 93 96 95 98 86 76 78 82 92
14 8 8 22 45 56 65 66 64 48 32 28 20 18 30 56 43 29 55 86 98 97 96 96 95 97 96 98 98 97 96 98 97 97 97 99 98 98 99 100 98 95 83
77 8 6 8 26 43 52 64 65 60 38 44 37 37 18 14 28 58 93 95 98 97 97 96 96 96 96 97 96 98 96 97 96 96 98 93 96 96 96 95 95 96 98
39 8 6 6 11 31 39 54 63 66 77 34 41 16 10 12 22 58 94 98 98 97 97 97 96 95 96 97 97 98 97 97 96 95 97 97 95 95 92 96 94 93 92
72 22 9 5 9 21 33 50 81 80 57 41 15 7 8 25 36 95 97 99 98 97 97 97 97 96 97 99 98 98 98 97 96 97 97 98 98 96 96 97 97 97 91
98 52 11 5 9 16 20 24 19 16 9 7 8 27 98 97 97 97 97 97 97 98 97 98 97 98 97 98 99 97 97 97 97 97 98 96 97 96 97 94 90 85 80
98 98 100 68 53 42 73 12 18 86 6 33 90 97 97 97 97 97 98 97 98 98 98 98 98 98 97 97 98 96 97 97 96 94 91 96 97 97 97 98 99 96 92
96 96 96 93 90 94 91 92 83 75 75 66 36 34 30 27 14 13 28 42 79 92 96 97 98 97 97 98 98 97 96 97 97 98 97 97 98 98 98 97 100 99 94
45 46 29 32 30 23 20 14 11 12 15 10 7 8 7 9 7 6 6 5 5 8 18 16 17 45 82 96 98 97 97 97 97 97 100 97 98 99 97 99 100 100 99

GFSMA_500_rhum_141.txt.gz
RH
92 92 77 63 48 50 56 57 52 49 41 33 21 20 24 30 32 28 27 28 20 17 16 14 14 16 18 22 25 29 33 37 35 38 32 29 28 21 18 7 6 7 7
60 66 91 90 79 68 57 59 64 59 50 43 36 27 24 30 32 28 28 28 28 20 17 18 16 16 18 22 24 28 31 37 39 43 37 31 27 19 14 8 6 8 7
55 71 59 80 87 81 58 48 52 62 54 51 46 38 34 32 33 33 32 33 31 27 24 21 20 20 20 21 24 26 28 36 42 43 46 40 30 22 13 10 5 6 7
47 62 54 43 70 78 65 61 49 46 54 53 47 47 44 40 38 38 38 37 34 30 26 24 24 22 22 22 24 26 28 32 40 46 45 48 52 37 16 11 5 5 6
50 55 57 45 43 62 72 63 64 64 49 50 56 48 47 48 45 42 42 40 39 33 27 22 21 24 24 23 24 25 28 29 39 44 49 51 57 58 42 18 13 5 5
52 57 62 58 52 44 56 63 58 74 66 46 40 43 49 56 54 50 46 46 44 41 35 26 22 22 24 24 26 24 26 29 36 43 54 61 64 66 60 33 14 5 5
48 53 58 63 61 55 48 43 54 57 68 52 50 50 49 54 59 60 53 51 50 48 45 39 27 21 20 20 23 24 26 28 37 42 46 59 71 76 73 58 25 8 5
46 51 57 58 54 51 49 44 45 57 59 56 56 54 51 51 54 55 58 60 57 55 53 48 36 26 19 19 20 21 24 26 30 33 42 55 72 73 79 72 60 22 7
44 45 46 57 63 51 44 46 49 51 64 60 61 55 52 57 62 58 67 65 66 63 59 58 53 43 27 17 18 19 21 25 28 36 50 48 63 77 78 76 74 58 19
40 45 46 49 48 53 52 49 66 64 92 58 69 52 55 57 60 52 63 70 70 72 71 69 62 60 57 38 21 18 19 22 25 33 60 49 52 73 79 76 78 76 50
35 36 39 41 48 55 58 57 50 47 56 30 45 59 56 57 66 70 72 76 73 76 73 72 62 70 84 78 72 53 23 30 35 63 48 50 51 70 85 75 77 74 72
36 34 36 38 46 52 56 61 64 54 44 32 29 43 51 55 78 83 85 71 83 77 86 77 66 79 96 95 90 93 40 55 45 70 41 62 64 61 87 87 76 76 77
35 36 40 44 45 56 65 65 65 63 62 54 38 48 55 96 96 93 97 87 77 91 92 93 97 96 95 81 97 94 89 32 50 78 56 75 71 66 93 94 89 84 85
35 35 38 38 40 47 57 67 70 82 71 70 77 77 80 96 96 94 76 55 69 84 73 99 100 97 95 89 90 97 95 54 82 95 90 86 74 80 77 97 97 94 94
37 41 42 43 42 44 51 65 81 96 93 79 75 43 58 98 96 100 93 61 56 35 80 90 75 97 89 87 88 91 95 98 97 93 94 96 96 97 97 97 98 100 99
35 38 39 43 45 46 56 71 76 75 83 85 91 59 36 96 85 77 90 91 97 64 42 80 70 85 64 93 99 97 96 94 99 96 96 97 96 98 98 98 89 89 85
13 14 24 32 34 41 55 70 67 80 87 83 74 90 84 64 48 78 46 76 95 92 69 44 40 34 45 91 99 96 94 95 96 97 96 92 95 99 100 100 98 94 88
29 22 14 11 12 22 37 63 81 78 85 97 82 70 64 36 31 26 15 66 88 99 90 78 100 99 50 72 97 96 97 95 97 97 97 96 96 98 98 98 97 99 87
41 52 42 22 15 13 14 51 84 85 92 85 85 69 49 45 37 19 19 40 98 51 53 56 61 43 62 97 98 96 99 97 96 97 97 97 97 98 98 95 100 98 99
35 30 31 28 21 15 13 14 34 60 72 78 79 80 86 86 69 56 75 71 79 57 45 28 16 21 68 97 98 97 97 98 96 97 97 97 96 98 97 92 93 98 97
95 73 70 52 17 13 10 10 13 33 52 62 74 80 82 91 72 74 96 87 93 80 77 27 18 38 82 99 98 98 96 98 97 97 97 96 97 98 96 97 97 99 98
100 100 100 90 79 15 10 8 11 23 46 66 76 84 95 94 88 84 74 58 93 50 19 74 98 96 96 96 98 98 98 97 95 100 98 96 98 95 99 97 97 95 100
100 98 88 66 32 19 27 15 15 24 39 53 80 93 96 97 92 72 34 88 84 73 87 71 69 89 96 97 97 97 97 98 97 96 99 94 92 96 97 98 97 99 100
98 99 94 95 82 71 29 94 84 44 40 62 62 47 59 62 49 59 65 44 31 30 20 15 11 11 12 14 19 38 76 92 96 98 99 93 98 92 98 97 97 99 97
99 99 99 99 98 96 99 99 80 75 75 70 63 63 33 18 14 13 8 8 7 6 7 7 6 7 7 8 9 10 9 8 12 39 56 75 95 100 97 98 97 99 98
87 60 58 48 45 55 45 39 34 23 10 8 7 6 6 7 6 6 6 6 7 7 7 8 8 8 8 8 9 10 10 8 11 15 13 18 35 60 92 94 99 98 97

GFSMA_500_rhum_144.txt.gz
RH
34 92 94 69 66 64 68 50 47 53 50 46 39 30 21 19 20 26 32 29 27 26 27 25 21 21 19 17 18 21 24 28 34 41 44 44 39 31 25 14 10 7 7
32 43 83 97 93 80 56 56 57 62 62 56 50 43 36 28 28 34 35 33 29 29 30 28 26 23 23 22 21 21 24 26 30 36 43 47 47 47 38 25 12 6 5
40 44 72 69 63 91 83 85 67 58 63 66 60 55 48 40 37 35 37 35 35 34 34 33 29 26 24 24 22 21 23 25 27 32 41 45 49 54 57 52 28 12 7
22 30 50 66 63 52 68 79 73 58 52 44 50 54 53 50 47 43 43 44 42 42 39 38 34 30 25 24 24 22 21 23 25 30 38 44 50 56 63 64 59 33 12
27 29 45 52 53 56 41 51 73 66 61 62 60 52 51 54 50 51 48 45 47 46 45 41 40 35 28 24 22 22 22 22 24 26 33 44 47 46 58 72 73 61 29
28 31 34 51 48 56 60 40 41 64 64 59 59 67 52 43 50 50 56 56 52 48 46 49 48 46 40 32 24 19 18 20 20 24 28 34 38 41 55 74 77 76 64
28 33 34 40 56 60 65 65 56 42 50 50 50 60 62 52 48 49 53 53 56 58 52 51 50 52 52 49 39 30 21 18 19 20 22 26 30 42 56 58 74 79 77
27 31 38 40 43 43 57 59 61 63 50 43 45 53 55 56 56 54 51 54 55 56 58 61 60 58 58 58 57 54 47 34 21 19 19 22 25 33 57 58 56 72 76
35 31 30 32 37 40 52 54 58 56 53 48 44 44 53 59 60 59 61 65 61 52 60 71 77 73 68 68 71 70 71 71 50 49 29 24 54 48 50 63 69 74 76
38 37 35 38 42 44 48 49 55 53 58 51 46 48 53 60 61 63 59 65 62 60 62 67 73 76 75 77 70 71 80 79 77 72 72 68 37 49 59 62 60 78 79
35 40 40 39 38 46 44 49 56 65 61 67 62 53 62 77 71 63 71 72 70 70 68 58 69 81 84 76 72 73 83 94 95 97 95 94 76 80 74 68 66 74 82
34 35 40 46 44 39 45 57 58 62 70 60 84 78 59 51 55 36 32 66 65 70 73 71 87 81 87 99 95 89 90 93 87 80 98 96 87 80 88 84 74 69 89
15 38 41 44 45 45 45 42 47 47 60 77 80 83 92 73 63 69 63 37 52 92 86 83 96 67 85 96 89 93 83 98 93 89 100 94 96 93 70 88 96 97 99
4 20 41 42 42 47 48 48 48 51 58 67 76 87 87 86 80 82 77 87 92 96 74 99 96 67 60 91 86 97 54 61 64 88 92 97 99 96 90 87 93 96 96
12 11 13 35 49 47 44 49 50 54 59 60 70 79 88 93 89 95 87 82 79 98 75 97 76 82 67 53 83 79 68 34 36 50 84 93 96 95 97 96 99 99 99
39 40 32 22 30 41 52 54 52 49 64 64 69 80 87 88 97 97 96 95 97 99 95 98 89 100 98 91 79 65 71 84 100 95 58 76 95 97 97 97 95 99 100
20 20 24 30 34 33 37 46 54 58 61 62 63 75 93 100 96 96 96 91 69 96 94 100 95 70 59 97 100 98 98 89 90 43 51 90 96 96 97 96 96 97 98
65 38 26 24 22 21 26 25 29 42 72 80 93 78 77 85 95 96 97 94 89 93 96 81 46 32 23 47 99 79 83 68 27 20 53 94 95 96 97 97 96 97 98
88 83 75 54 40 45 41 38 32 27 51 75 85 88 93 90 100 99 95 93 92 95 97 76 67 59 52 52 97 90 80 58 19 33 53 89 83 97 95 96 97 97 94
73 71 51 52 47 34 36 48 43 30 28 69 82 82 87 90 91 92 95 97 96 96 97 95 93 91 78 95 83 82 84 29 94 99 83 87 86 96 97 96 98 97 98
90 95 87 69 38 53 46 48 32 22 35 48 63 86 86 92 81 80 89 97 97 96 97 95 81 90 82 68 60 69 74 76 90 98 89 90 99 98 97 98 98 99 98
92 100 100 100 97 82 49 63 49 29 57 39 39 40 35 49 84 100 93 96 94 95 91 95 97 82 49 40 40 38 27 43 52 32 41 39 43 77 99 96 98 97 97
75 85 84 96 90 90 81 67 59 68 89 100 93 98 72 96 96 94 95 96 90 83 91 50 27 21 15 14 14 14 18 13 8 11 7 7 7 9 13 19 58 96 100
95 93 58 49 46 60 68 68 62 65 59 51 45 53 62 86 96 89 58 40 38 25 19 12 8 7 7 7 8 8 8 8 9 10 9 8 8 8 7 7 9 11 14
98 92 99 98 98 98 97 98 98 98 99 94 80 66 85 67 46 20 19 11 8 8 8 8 8 8 7 8 9 9 10 11 11 12 12 12 11 10 9 8 8 8 11
15 46 74 81 96 92 97 83 79 31 28 22 30 26 25 20 12 7 8 9 8 9 9 10 10 10 11 11 12 13 13 14 15 16 15 13 11 9 8 8 7 8 8